Tracking 18844 objects as of 21-Nov-2017
HD Live streaming from Space Station
objects crossing your sky now

GLOBALSTAR M003

Track GLOBALSTAR M003 now!
10-day predictions
GLOBALSTAR M003 is classified as:


NORAD ID: 25165
Int'l Code: 1998-008D
Perigee: 1,629.0 km
Apogee: 1,640.6 km
Inclination: 52.0 °
Period: 118.8 minutes
Semi major axis: 8005 km
RCS: 2.2435 m2 (large)
Launch date: February 14, 1998
Source: Globalstar (GLOB)
Launch site: AIR FORCE EASTERN TEST RANGE (AFETR)
aabbcc
Your satellite tracking list
Your tracking list is empty




NASA's NSSDC Master Catalog

Two Line Element Set (TLE):
1 25165U 98008D   17324.92277740 +.00000052 +00000-0 +15115-2 0  9991
2 25165 051.9945 267.9612 0007222 117.5913 347.3485 12.11978492897919
Source of the keplerian elements: AFSPC